QPF
0.05 0.03 0.04 0.04 0.02 0.03 0.04 0.04 0.04 0.03 0.02 0.03 0.06 0.08 0.08 0.09 0.14 0.12 0.07 0.06 0.05 0.08 0.12 0.07 0.05 0.04 0.06 0.08 0.08 0.09 0.08 0.10 0.14 0.15 0.11 0.12 0.12 0.08 0.05 0.04 0.04 0.02 0.05
0.04 0.04 0.05 0.04 0.04 0.04 0.03 0.03 0.04 0.02 0.03 0.05 0.08 0.10 0.10 0.10 0.14 0.14 0.10 0.07 0.06 0.10 0.09 0.07 0.05 0.05 0.07 0.09 0.09 0.08 0.09 0.14 0.20 0.16 0.12 0.12 0.10 0.07 0.05 0.05 0.04 0.02 0.03
0.05 0.03 0.04 0.04 0.04 0.04 0.03 0.03 0.04 0.04 0.04 0.05 0.08 0.10 0.09 0.11 0.16 0.18 0.17 0.13 0.12 0.12 0.09 0.07 0.04 0.05 0.08 0.10 0.09 0.08 0.08 0.09 0.10 0.12 0.11 0.08 0.06 0.07 0.06 0.05 0.04 0.03 0.02
0.03 0.02 0.03 0.03 0.03 0.03 0.03 0.03 0.03 0.03 0.03 0.05 0.08 0.09 0.11 0.16 0.21 0.16 0.15 0.13 0.10 0.09 0.07 0.05 0.04 0.04 0.05 0.07 0.07 0.09 0.08 0.08 0.11 0.13 0.10 0.07 0.05 0.07 0.07 0.05 0.04 0.04 0.04
0.03 0.02 0.02 0.03 0.03 0.02 0.02 0.02 0.02 0.03 0.04 0.06 0.09 0.09 0.11 0.15 0.16 0.11 0.10 0.07 0.06 0.07 0.06 0.04 0.04 0.04 0.04 0.04 0.05 0.07 0.09 0.11 0.15 0.15 0.10 0.09 0.07 0.09 0.08 0.06 0.04 0.03 0.04
0.03 0.02 0.03 0.04 0.04 0.03 0.03 0.03 0.03 0.04 0.07 0.13 0.10 0.09 0.08 0.09 0.08 0.07 0.06 0.04 0.04 0.05 0.05 0.05 0.05 0.04 0.05 0.05 0.06 0.07 0.12 0.15 0.16 0.13 0.12 0.08 0.05 0.08 0.09 0.07 0.05 0.04 0.04
0.02 0.02 0.03 0.03 0.03 0.02 0.02 0.03 0.04 0.08 0.17 0.14 0.10 0.08 0.06 0.05 0.05 0.05 0.05 0.05 0.05 0.05 0.04 0.04 0.04 0.04 0.07 0.08 0.09 0.14 0.15 0.18 0.15 0.10 0.11 0.10 0.09 0.09 0.08 0.07 0.05 0.04 0.04
0.01 0.01 0.02 0.02 0.02 0.02 0.02 0.03 0.06 0.12 0.13 0.08 0.07 0.05 0.04 0.04 0.04 0.04 0.05 0.05 0.05 0.04 0.03 0.03 0.04 0.03 0.08 0.08 0.10 0.15 0.17 0.17 0.10 0.07 0.11 0.11 0.14 0.13 0.08 0.07 0.07 0.05 0.04
0.02 0.02 0.02 0.02 0.02 0.02 0.02 0.03 0.03 0.05 0.06 0.05 0.04 0.03 0.03 0.03 0.06 0.05 0.03 0.04 0.06 0.04 0.04 0.04 0.06 0.05 0.11 0.11 0.13 0.16 0.18 0.17 0.11 0.12 0.16 0.08 0.09 0.10 0.08 0.07 0.06 0.07 0.07
0.05 0.05 0.04 0.04 0.04 0.02 0.02 0.02 0.03 0.04 0.05 0.05 0.04 0.04 0.04 0.05 0.05 0.05 0.04 0.04 0.06 0.05 0.04 0.06 0.08 0.08 0.08 0.12 0.14 0.17 0.19 0.17 0.12 0.19 0.25 0.13 0.11 0.11 0.09 0.06 0.05 0.06 0.08
0.04 0.03 0.04 0.05 0.05 0.04 0.03 0.02 0.03 0.04 0.04 0.03 0.02 0.03 0.03 0.02 0.03 0.03 0.02 0.03 0.03 0.04 0.05 0.06 0.07 0.10 0.08 0.10 0.11 0.14 0.18 0.13 0.14 0.21 0.21 0.12 0.09 0.11 0.10 0.06 0.05 0.05 0.06
0.02 0.02 0.03 0.04 0.04 0.04 0.03 0.02 0.02 0.04 0.02 0.02 0.02 0.02 0.02 0.02 0.01 0.02 0.03 0.04 0.04 0.04 0.05 0.07 0.08 0.11 0.09 0.07 0.08 0.10 0.17 0.16 0.17 0.18 0.14 0.09 0.08 0.07 0.08 0.08 0.07 0.05 0.06
0.03 0.03 0.02 0.02 0.02 0.03 0.03 0.03 0.02 0.03 0.02 0.02 0.02 0.02 0.02 0.01 0.01 0.02 0.03 0.03 0.03 0.04 0.03 0.05 0.08 0.09 0.06 0.07 0.08 0.09 0.11 0.13 0.16 0.15 0.12 0.08 0.09 0.07 0.07 0.09 0.08 0.07 0.08
0.02 0.02 0.02 0.02 0.03 0.04 0.03 0.03 0.03 0.03 0.02 0.02 0.02 0.03 0.02 0.02 0.02 0.02 0.02 0.02 0.03 0.03 0.03 0.04 0.06 0.09 0.07 0.05 0.07 0.07 0.08 0.10 0.10 0.13 0.13 0.12 0.10 0.08 0.08 0.08 0.07 0.07 0.06
0.01 0.01 0.01 0.01 0.02 0.04 0.05 0.03 0.03 0.03 0.02 0.02 0.02 0.02 0.02 0.02 0.01 0.03 0.03 0.03 0.04 0.04 0.05 0.06 0.06 0.09 0.07 0.05 0.05 0.07 0.08 0.09 0.08 0.09 0.10 0.11 0.10 0.08 0.07 0.08 0.06 0.06 0.05
0.01 0.01 0.01 0.01 0.02 0.01 0.02 0.02 0.03 0.03 0.03 0.03 0.03 0.03 0.02 0.01 0.01 0.01 0.02 0.03 0.05 0.05 0.05 0.06 0.05 0.06 0.05 0.04 0.04 0.05 0.08 0.10 0.08 0.07 0.06 0.06 0.07 0.07 0.07 0.07 0.06 0.06 0.05
0.01 0.02 0.02 0.01 0.01 0.01 0.01 0.02 0.03 0.05 0.03 0.03 0.03 0.03 0.02 0.01 0.01 0.01 0.02 0.04 0.05 0.06 0.06 0.06 0.06 0.05 0.04 0.03 0.03 0.04 0.06 0.08 0.08 0.08 0.06 0.05 0.05 0.06 0.06 0.06 0.06 0.05 0.05
0.01 0.01 0.01 0.01 0.02 0.01 0.01 0.02 0.04 0.05 0.04 0.03 0.03 0.03 0.02 0.01 0.01 0.02 0.04 0.04 0.06 0.06 0.06 0.06 0.06 0.04 0.04 0.04 0.04 0.07 0.09 0.08 0.08 0.10 0.09 0.06 0.05 0.04 0.04 0.05 0.05 0.07 0.07
0.01 0.01 0.01 0.02 0.03 0.02 0.02 0.02 0.04 0.06 0.05 0.04 0.04 0.04 0.02 0.02 0.01 0.02 0.03 0.03 0.05 0.06 0.07 0.08 0.07 0.05 0.05 0.04 0.09 0.12 0.06 0.06 0.07 0.07 0.08 0.07 0.06 0.05 0.04 0.06 0.09 0.09 0.10
0.01 0.01 0.02 0.02 0.02 0.03 0.03 0.03 0.03 0.06 0.07 0.06 0.07 0.06 0.03 0.03 0.02 0.02 0.02 0.03 0.05 0.06 0.07 0.07 0.07 0.06 0.05 0.05 0.07 0.05 0.04 0.06 0.06 0.08 0.07 0.06 0.08 0.10 0.09 0.08 0.09 0.11 0.12
0.01 0.01 0.01 0.01 0.02 0.02 0.03 0.03 0.02 0.04 0.05 0.05 0.04 0.04 0.04 0.04 0.04 0.05 0.03 0.03 0.04 0.04 0.06 0.07 0.08 0.08 0.06 0.06 0.07 0.08 0.08 0.05 0.06 0.07 0.06 0.06 0.06 0.06 0.10 0.11 0.13 0.14 0.11
0.01 0.01 0.01 0.01 0.01 0.02 0.02 0.03 0.03 0.03 0.03 0.03 0.02 0.02 0.03 0.03 0.05 0.04 0.04 0.03 0.04 0.05 0.07 0.08 0.07 0.07 0.06 0.08 0.08 0.07 0.07 0.07 0.06 0.06 0.06 0.05 0.05 0.07 0.08 0.07 0.08 0.08 0.08
0.01 0.01 0.01 0.01 0.01 0.01 0.01 0.02 0.03 0.03 0.04 0.04 0.03 0.03 0.04 0.04 0.04 0.02 0.03 0.03 0.02 0.03 0.04 0.05 0.08 0.09 0.08 0.09 0.10 0.09 0.07 0.06 0.06 0.07 0.06 0.05 0.04 0.05 0.06 0.05 0.05 0.07 0.09
0.01 0.01 0.01 0.01 0.01 0.00 0.00 0.01 0.04 0.04 0.05 0.05 0.04 0.05 0.05 0.05 0.03 0.02 0.02 0.01 0.01 0.01 0.02 0.03 0.05 0.07 0.08 0.09 0.09 0.08 0.08 0.08 0.09 0.07 0.06 0.06 0.06 0.07 0.05 0.06 0.07 0.08 0.09
0.02 0.01 0.01 0.00 0.00 0.01 0.01 0.01 0.03 0.07 0.09 0.08 0.05 0.04 0.03 0.04 0.04 0.05 0.05 0.04 0.03 0.02 0.02 0.03 0.03 0.05 0.06 0.07 0.08 0.08 0.09 0.08 0.07 0.06 0.05 0.05 0.06 0.06 0.05 0.07 0.09 0.08 0.07
0.02 0.01 0.01 0.01 0.01 0.01 0.01 0.01 0.02 0.08 0.11 0.07 0.04 0.03 0.03 0.03 0.03 0.04 0.06 0.09 0.09 0.05 0.03 0.03 0.03 0.04 0.04 0.06 0.08 0.10 0.10 0.09 0.07 0.06 0.05 0.04 0.05 0.06 0.06 0.06 0.07 0.08 0.07
MSLP
1009.13 1008.09 1007.05 1006.08 1005.22 1004.52 1003.96 1003.51 1003.05 1002.43 1001.44 999.88 997.62 994.63 991.05 987.15 983.33 980.06 977.86 977.02 977.71 979.83 983.13 987.13 991.35 995.31 998.64 1001.16 1002.89 1003.96 1004.63 1005.12 1005.65 1006.31 1007.12 1008.01 1008.87 1009.61 1010.19 1010.58 1010.85 1011.05 1011.26
1008.84 1007.92 1007.01 1006.15 1005.37 1004.70 1004.13 1003.63 1003.11 1002.42 1001.39 999.84 997.64 994.77 991.34 987.61 983.95 980.83 978.72 977.92 978.58 980.63 983.81 987.67 991.76 995.59 998.81 1001.27 1002.97 1004.05 1004.75 1005.29 1005.87 1006.58 1007.43 1008.33 1009.18 1009.90 1010.44 1010.79 1011.01 1011.17 1011.36
1008.37 1007.61 1006.87 1006.17 1005.51 1004.91 1004.37 1003.85 1003.29 1002.59 1001.60 1000.16 998.16 995.58 992.50 989.16 985.88 983.07 981.17 980.45 981.05 982.91 985.79 989.30 993.00 996.47 999.39 1001.61 1003.17 1004.18 1004.88 1005.47 1006.11 1006.88 1007.76 1008.68 1009.52 1010.20 1010.68 1010.97 1011.15 1011.29 1011.46
1007.76 1007.19 1006.65 1006.14 1005.63 1005.14 1004.64 1004.13 1003.57 1002.90 1001.99 1000.73 999.03 996.87 994.29 991.49 988.73 986.37 984.77 984.17 984.69 986.28 988.73 991.73 994.87 997.80 1000.26 1002.14 1003.46 1004.37 1005.04 1005.66 1006.36 1007.19 1008.11 1009.03 1009.84 1010.47 1010.89 1011.13 1011.26 1011.37 1011.54
1007.13 1006.73 1006.39 1006.07 1005.73 1005.34 1004.91 1004.43 1003.89 1003.25 1002.46 1001.42 1000.07 998.38 996.37 994.18 992.03 990.18 988.92 988.46 988.89 990.18 992.15 994.55 997.05 999.37 1001.31 1002.79 1003.85 1004.61 1005.25 1005.89 1006.64 1007.51 1008.45 1009.35 1010.12 1010.69 1011.05 1011.24 1011.34 1011.44 1011.63
1006.57 1006.32 1006.15 1006.01 1005.81 1005.54 1005.17 1004.71 1004.19 1003.59 1002.91 1002.10 1001.09 999.86 998.42 996.85 995.29 993.95 993.04 992.72 993.07 994.07 995.57 997.37 999.25 1000.97 1002.40 1003.49 1004.31 1004.94 1005.53 1006.18 1006.97 1007.85 1008.78 1009.65 1010.36 1010.87 1011.17 1011.31 1011.39 1011.50 1011.71
1006.21 1006.07 1006.03 1006.02 1005.94 1005.75 1005.42 1004.98 1004.46 1003.90 1003.31 1002.68 1001.97 1001.15 1000.20 999.17 998.15 997.26 996.67 996.48 996.77 997.50 998.59 999.89 1001.22 1002.43 1003.43 1004.21 1004.81 1005.35 1005.90 1006.55 1007.34 1008.22 1009.11 1009.92 1010.56 1011.00 1011.25 1011.37 1011.44 1011.57 1011.81
1006.13 1006.06 1006.10 1006.17 1006.15 1006.00 1005.69 1005.25 1004.73 1004.19 1003.67 1003.17 1002.68 1002.17 1001.61 1001.01 1000.41 999.89 999.54 999.46 999.69 1000.22 1000.99 1001.89 1002.81 1003.65 1004.34 1004.90 1005.37 1005.83 1006.37 1007.01 1007.78 1008.62 1009.44 1010.17 1010.73 1011.10 1011.31 1011.42 1011.51 1011.67 1011.93
1006.33 1006.29 1006.37 1006.47 1006.48 1006.33 1006.01 1005.56 1005.03 1004.49 1004.01 1003.61 1003.27 1002.98 1002.69 1002.38 1002.07 1001.80 1001.63 1001.61 1001.80 1002.18 1002.72 1003.36 1004.01 1004.60 1005.12 1005.56 1005.97 1006.41 1006.92 1007.55 1008.26 1009.03 1009.76 1010.39 1010.88 1011.20 1011.38 1011.49 1011.61 1011.80 1012.11
1006.77 1006.74 1006.82 1006.91 1006.90 1006.74 1006.40 1005.93 1005.39 1004.87 1004.42 1004.08 1003.85 1003.69 1003.56 1003.43 1003.29 1003.17 1003.09 1003.11 1003.25 1003.53 1003.92 1004.39 1004.89 1005.37 1005.81 1006.21 1006.60 1007.03 1007.53 1008.12 1008.77 1009.43 1010.06 1010.60 1011.01 1011.29 1011.47 1011.61 1011.77 1012.01 1012.34
1007.34 1007.31 1007.37 1007.43 1007.39 1007.19 1006.83 1006.36 1005.83 1005.33 1004.92 1004.64 1004.47 1004.39 1004.35 1004.32 1004.27 1004.20 1004.15 1004.17 1004.26 1004.47 1004.78 1005.16 1005.59 1006.03 1006.44 1006.85 1007.26 1007.69 1008.17 1008.69 1009.25 1009.81 1010.33 1010.78 1011.13 1011.40 1011.59 1011.78 1011.99 1012.27 1012.62
1007.92 1007.89 1007.93 1007.94 1007.85 1007.63 1007.26 1006.81 1006.31 1005.87 1005.52 1005.29 1005.19 1005.16 1005.17 1005.17 1005.14 1005.09 1005.03 1005.02 1005.07 1005.23 1005.48 1005.82 1006.22 1006.65 1007.08 1007.50 1007.92 1008.34 1008.77 1009.23 1009.69 1010.14 1010.57 1010.93 1011.25 1011.51 1011.75 1011.98 1012.25 1012.57 1012.93
1008.41 1008.39 1008.40 1008.36 1008.23 1007.99 1007.63 1007.22 1006.79 1006.42 1006.15 1006.00 1005.95 1005.97 1006.00 1006.01 1005.99 1005.93 1005.85 1005.81 1005.83 1005.94 1006.16 1006.47 1006.86 1007.28 1007.72 1008.15 1008.56 1008.95 1009.33 1009.71 1010.07 1010.42 1010.75 1011.07 1011.35 1011.63 1011.91 1012.21 1012.53 1012.88 1013.25
1008.77 1008.75 1008.72 1008.64 1008.48 1008.23 1007.90 1007.54 1007.20 1006.92 1006.74 1006.67 1006.68 1006.73 1006.79 1006.81 1006.79 1006.73 1006.64 1006.59 1006.59 1006.68 1006.87 1007.16 1007.53 1007.94 1008.36 1008.77 1009.16 1009.51 1009.83 1010.12 1010.39 1010.66 1010.92 1011.18 1011.46 1011.75 1012.07 1012.41 1012.79 1013.16 1013.53
1009.00 1008.95 1008.89 1008.77 1008.59 1008.34 1008.05 1007.75 1007.50 1007.31 1007.22 1007.22 1007.28 1007.36 1007.44 1007.48 1007.47 1007.42 1007.35 1007.30 1007.31 1007.40 1007.59 1007.86 1008.21 1008.59 1008.99 1009.36 1009.71 1010.01 1010.26 1010.49 1010.68 1010.87 1011.08 1011.31 1011.57 1011.87 1012.21 1012.59 1012.98 1013.37 1013.74
1009.17 1009.08 1008.97 1008.81 1008.60 1008.36 1008.11 1007.89 1007.71 1007.59 1007.56 1007.59 1007.67 1007.77 1007.85 1007.90 1007.91 1007.89 1007.87 1007.87 1007.92 1008.04 1008.23 1008.50 1008.83 1009.18 1009.54 1009.88 1010.18 1010.44 1010.65 1010.82 1010.97 1011.11 1011.26 1011.45 1011.69 1011.97 1012.31 1012.69 1013.09 1013.47 1013.82
1009.37 1009.22 1009.05 1008.84 1008.61 1008.39 1008.18 1008.01 1007.88 1007.81 1007.79 1007.82 1007.88 1007.94 1008.00 1008.04 1008.07 1008.10 1008.14 1008.21 1008.33 1008.50 1008.73 1009.01 1009.33 1009.66 1010.00 1010.31 1010.59 1010.82 1011.01 1011.16 1011.27 1011.38 1011.49 1011.64 1011.83 1012.07 1012.38 1012.72 1013.09 1013.45 1013.79
1009.72 1009.48 1009.23 1008.97 1008.74 1008.52 1008.35 1008.21 1008.11 1008.04 1008.00 1007.98 1007.96 1007.95 1007.95 1007.96 1007.99 1008.06 1008.16 1008.31 1008.51 1008.75 1009.03 1009.34 1009.67 1010.00 1010.32 1010.63 1010.91 1011.15 1011.35 1011.49 1011.61 1011.69 1011.77 1011.86 1011.99 1012.17 1012.40 1012.68 1013.00 1013.32 1013.63
1010.26 1009.93 1009.60 1009.30 1009.05 1008.85 1008.70 1008.59 1008.50 1008.41 1008.30 1008.18 1008.05 1007.93 1007.82 1007.77 1007.77 1007.85 1008.01 1008.23 1008.51 1008.82 1009.15 1009.49 1009.83 1010.17 1010.50 1010.82 1011.12 1011.39 1011.63 1011.81 1011.93 1012.01 1012.06 1012.10 1012.15 1012.24 1012.38 1012.58 1012.82 1013.09 1013.37
1011.01 1010.58 1010.19 1009.85 1009.59 1009.41 1009.29 1009.19 1009.10 1008.97 1008.78 1008.55 1008.27 1008.01 1007.77 1007.62 1007.57 1007.63 1007.81 1008.07 1008.39 1008.75 1009.11 1009.47 1009.83 1010.17 1010.52 1010.87 1011.21 1011.53 1011.81 1012.04 1012.20 1012.29 1012.32 1012.31 1012.29 1012.29 1012.33 1012.43 1012.59 1012.81 1013.06
1011.90 1011.41 1010.95 1010.59 1010.33 1010.17 1010.08 1010.01 1009.92 1009.75 1009.48 1009.13 1008.72 1008.30 1007.94 1007.67 1007.53 1007.54 1007.69 1007.95 1008.28 1008.64 1009.00 1009.35 1009.69 1010.03 1010.38 1010.75 1011.13 1011.50 1011.85 1012.14 1012.35 1012.46 1012.48 1012.44 1012.35 1012.27 1012.23 1012.24 1012.33 1012.49 1012.71
1012.86 1012.32 1011.83 1011.45 1011.21 1011.08 1011.02 1010.98 1010.89 1010.70 1010.39 1009.94 1009.42 1008.87 1008.38 1007.99 1007.76 1007.69 1007.78 1007.99 1008.26 1008.57 1008.88 1009.18 1009.47 1009.77 1010.10 1010.47 1010.87 1011.29 1011.69 1012.04 1012.30 1012.45 1012.48 1012.43 1012.31 1012.17 1012.06 1012.01 1012.03 1012.15 1012.34
1013.78 1013.22 1012.72 1012.34 1012.11 1012.01 1011.99 1011.99 1011.92 1011.73 1011.39 1010.90 1010.31 1009.68 1009.09 1008.61 1008.28 1008.12 1008.12 1008.23 1008.41 1008.61 1008.82 1009.02 1009.21 1009.44 1009.71 1010.04 1010.43 1010.87 1011.31 1011.71 1012.01 1012.21 1012.27 1012.23 1012.10 1011.95 1011.80 1011.71 1011.69 1011.78 1011.94
1014.58 1014.03 1013.53 1013.16 1012.93 1012.86 1012.87 1012.90 1012.87 1012.71 1012.38 1011.89 1011.29 1010.63 1009.99 1009.45 1009.04 1008.79 1008.68 1008.67 1008.73 1008.79 1008.85 1008.91 1008.97 1009.08 1009.25 1009.52 1009.87 1010.29 1010.73 1011.15 1011.50 1011.73 1011.83 1011.81 1011.71 1011.56 1011.41 1011.31 1011.29 1011.35 1011.49
1015.25 1014.71 1014.22 1013.85 1013.63 1013.55 1013.58 1013.63 1013.63 1013.51 1013.23 1012.78 1012.21 1011.57 1010.93 1010.37 1009.92 1009.60 1009.39 1009.26 1009.17 1009.08 1008.98 1008.87 1008.79 1008.75 1008.81 1008.97 1009.25 1009.62 1010.03 1010.45 1010.80 1011.06 1011.19 1011.21 1011.14 1011.02 1010.89 1010.80 1010.78 1010.83 1010.95
1015.79 1015.27 1014.78 1014.41 1014.17 1014.08 1014.09 1014.15 1014.17 1014.09 1013.85 1013.47 1012.96 1012.37 1011.78 1011.24 1010.78 1010.41 1010.12 1009.89 1009.67 1009.43 1009.19 1008.93 1008.69 1008.51 1008.44 1008.49 1008.67 1008.95 1009.30 1009.67 1010.01 1010.26 1010.40 1010.45 1010.41 1010.33 1010.23 1010.16 1010.14 1010.19 1010.30
Thickness
5791 5795 5796 5795 5795 5794 5794 5793 5793 5792 5791 5790 5789 5789 5788 5787 5787 5787 5787 5786 5785 5783 5781 5779 5778 5777 5776 5774 5773 5772 5770 5769 5767 5765 5764 5763 5762 5761 5760 5758 5757 5756 5755
5796 5796 5796 5795 5795 5794 5794 5793 5792 5792 5791 5789 5788 5788 5787 5787 5786 5786 5786 5785 5784 5782 5780 5779 5778 5777 5775 5774 5773 5771 5770 5768 5766 5765 5764 5762 5761 5760 5759 5758 5757 5755 5754
5798 5797 5796 5796 5795 5794 5794 5793 5792 5791 5790 5789 5788 5787 5786 5786 5786 5786 5785 5785 5784 5782 5780 5779 5778 5776 5775 5774 5772 5771 5769 5768 5766 5765 5763 5761 5760 5759 5758 5757 5756 5755 5753
5798 5797 5797 5796 5795 5794 5793 5793 5791 5790 5790 5788 5787 5786 5786 5785 5785 5785 5785 5784 5783 5782 5780 5779 5778 5776 5775 5774 5772 5770 5769 5767 5766 5764 5762 5760 5759 5758 5757 5756 5755 5754 5753
5798 5797 5797 5796 5795 5794 5793 5792 5791 5790 5789 5788 5786 5786 5785 5785 5784 5785 5785 5784 5783 5782 5781 5779 5778 5777 5775 5774 5772 5770 5769 5767 5765 5764 5762 5760 5759 5758 5757 5756 5755 5754 5753
5798 5797 5797 5796 5795 5794 5792 5791 5790 5789 5788 5787 5786 5785 5785 5784 5784 5784 5784 5783 5782 5781 5780 5779 5778 5777 5775 5773 5772 5770 5768 5767 5765 5764 5762 5760 5759 5758 5757 5756 5755 5754 5752
5798 5798 5797 5796 5795 5794 5792 5791 5790 5788 5787 5787 5786 5785 5785 5784 5784 5783 5783 5783 5782 5781 5780 5779 5778 5776 5775 5773 5772 5770 5769 5767 5766 5764 5762 5760 5758 5758 5757 5756 5754 5753 5752
5799 5798 5796 5795 5794 5793 5791 5790 5789 5788 5787 5786 5786 5785 5784 5784 5783 5782 5782 5782 5781 5780 5780 5779 5777 5776 5774 5773 5772 5771 5770 5768 5767 5765 5762 5761 5759 5758 5756 5755 5754 5753 5751
5799 5797 5795 5794 5793 5792 5791 5789 5788 5787 5786 5785 5785 5784 5784 5783 5782 5782 5781 5781 5780 5780 5779 5778 5777 5776 5774 5773 5772 5772 5771 5769 5766 5765 5763 5762 5760 5759 5757 5755 5754 5752 5751
5798 5796 5794 5793 5792 5791 5789 5788 5787 5786 5785 5784 5784 5783 5783 5782 5781 5781 5781 5780 5780 5779 5779 5778 5777 5775 5774 5773 5772 5771 5770 5768 5766 5765 5764 5763 5761 5759 5757 5755 5753 5752 5750
5795 5795 5794 5793 5791 5790 5789 5787 5786 5785 5784 5783 5783 5782 5782 5781 5780 5780 5780 5779 5779 5779 5778 5777 5776 5775 5774 5773 5771 5770 5769 5768 5766 5765 5763 5762 5760 5759 5757 5755 5753 5752 5750
5792 5793 5794 5793 5791 5790 5789 5787 5785 5784 5783 5782 5782 5782 5781 5780 5780 5779 5779 5779 5778 5778 5777 5776 5775 5774 5773 5772 5770 5769 5768 5768 5766 5764 5762 5761 5760 5758 5756 5755 5753 5751 5750
5795 5794 5794 5793 5792 5790 5788 5787 5785 5784 5783 5782 5782 5781 5780 5780 5779 5778 5778 5777 5777 5777 5776 5775 5774 5772 5771 5770 5769 5768 5767 5766 5765 5764 5762 5761 5760 5758 5756 5755 5753 5751 5750
5795 5794 5794 5794 5792 5791 5789 5787 5785 5784 5783 5782 5782 5781 5780 5779 5778 5777 5776 5776 5776 5775 5774 5773 5771 5771 5770 5769 5768 5767 5766 5765 5764 5763 5762 5761 5759 5758 5757 5755 5753 5752 5750
5795 5794 5794 5795 5792 5791 5789 5788 5787 5785 5784 5784 5783 5782 5781 5779 5778 5777 5776 5775 5774 5773 5773 5771 5770 5769 5768 5768 5767 5766 5765 5765 5763 5762 5762 5760 5759 5757 5756 5754 5753 5751 5750
5796 5795 5795 5794 5793 5792 5790 5788 5787 5786 5785 5784 5783 5782 5781 5780 5778 5777 5776 5775 5774 5773 5772 5771 5769 5768 5767 5766 5765 5765 5765 5764 5762 5762 5761 5760 5758 5756 5754 5753 5752 5751 5750
5798 5797 5796 5795 5794 5792 5790 5789 5788 5787 5786 5785 5783 5782 5781 5780 5779 5777 5776 5775 5774 5774 5772 5770 5769 5767 5766 5764 5764 5764 5763 5763 5762 5760 5759 5758 5757 5756 5754 5753 5751 5750 5750
5800 5798 5797 5798 5794 5793 5791 5789 5788 5787 5786 5785 5783 5782 5781 5780 5779 5777 5776 5775 5775 5773 5771 5769 5767 5765 5763 5762 5761 5762 5762 5761 5761 5760 5758 5757 5756 5755 5753 5752 5751 5749 5749
5803 5800 5798 5797 5794 5793 5792 5790 5788 5787 5785 5784 5783 5782 5781 5780 5779 5778 5776 5775 5774 5773 5771 5769 5767 5765 5762 5760 5760 5760 5760 5759 5759 5759 5757 5756 5755 5754 5753 5751 5750 5748 5748
5804 5801 5798 5797 5795 5793 5791 5789 5787 5785 5784 5784 5783 5782 5781 5780 5779 5777 5775 5774 5773 5771 5769 5768 5765 5764 5762 5760 5759 5759 5758 5758 5758 5757 5756 5755 5754 5753 5752 5750 5748 5747 5747
5802 5799 5797 5795 5794 5792 5789 5786 5783 5781 5782 5782 5782 5782 5780 5779 5778 5777 5775 5773 5772 5769 5767 5766 5764 5762 5760 5759 5755 5752 5753 5755 5755 5754 5754 5753 5752 5751 5750 5749 5748 5747 5747
5801 5799 5797 5795 5794 5792 5790 5788 5786 5784 5782 5782 5781 5780 5780 5779 5778 5777 5774 5772 5770 5768 5766 5765 5763 5759 5757 5758 5752 5745 5741 5744 5749 5754 5752 5751 5751 5750 5749 5749 5748 5747 5746
5801 5799 5798 5795 5794 5792 5791 5789 5786 5783 5780 5778 5777 5776 5777 5777 5776 5775 5774 5772 5770 5767 5764 5763 5762 5758 5754 5755 5753 5746 5738 5734 5740 5747 5749 5749 5749 5748 5748 5748 5748 5747 5746
5802 5801 5798 5795 5793 5792 5790 5787 5782 5777 5774 5774 5774 5774 5775 5775 5774 5773 5772 5770 5768 5766 5764 5763 5762 5759 5755 5751 5751 5750 5747 5744 5737 5737 5743 5746 5748 5748 5748 5748 5748 5747 5746
5803 5800 5798 5794 5792 5790 5789 5786 5782 5778 5775 5774 5774 5772 5772 5772 5771 5770 5769 5768 5766 5765 5763 5762 5760 5758 5756 5752 5749 5748 5746 5744 5742 5737 5735 5740 5744 5747 5748 5748 5747 5746 5745
5802 5799 5796 5793 5790 5788 5786 5784 5780 5776 5774 5771 5770 5768 5768 5767 5767 5767 5767 5766 5765 5763 5762 5760 5759 5757 5755 5753 5750 5748 5745 5742 5740 5738 5736 5736 5738 5742 5745 5746 5746 5745 5744